FW7515 Weather Reports


Display with metric or nautical units.
time (UTC)temp
F
wind
direction
speed
MPH
gust
MPH
rain 1hr
in
rain 24hr
in
rain mn
in
humidity
%
barometer
mb
20260902165029 92 85 4.0 10.0 0.00 0.00 0.00 48 1016.4
20260902164527 93 77 5.0 8.0 0.00 0.00 0.00 48 1016.4
20260902164026 94 83 3.0 8.0 0.00 0.00 0.00 46 1016.5
20260902163543 94 86 1.0 4.0 0.00 0.00 0.00 47 1016.6
20260902163020 93 112 2.0 5.0 0.00 0.00 0.00 48 1016.6
20260902162518 92 88 4.0 6.0 0.00 0.00 0.00 48 1016.6
20260902162016 92 82 3.0 6.0 0.00 0.00 0.00 49 1016.5
20260902161614 92 90 3.0 6.0 0.00 0.00 0.00 49 1016.7
20260902161032 92 81 3.0 7.0 0.00 0.00 0.00 49 1016.5
20260902160530 92 201 2.0 6.0 0.00 0.00 0.00 50 1016.6
20260902160028 92 72 2.0 6.0 0.00 0.00 0.00 51 1016.7
20260902155526 93 126 2.0 5.0 0.00 0.00 0.00 49 1016.7
20260902155024 93 191 1.0 4.0 0.00 0.00 0.00 50 1016.7
20260902154522 92 168 1.0 5.0 0.00 0.00 0.00 51 1016.7
20260902154020 91 169 2.0 5.0 0.00 0.00 0.00 53 1016.6
20260902153518 91 96 3.0 5.0 0.00 0.00 0.00 54 1016.6
20260902153037 91 116 2.0 6.0 0.00 0.00 0.00 53 1016.5
20260902152554 91 161 2.0 5.0 0.00 0.00 0.00 53 1016.5
20260902152036 91 107 1.0 4.0 0.00 0.00 0.00 54 1016.6
20260902151530 90 118 2.0 5.0 0.00 0.00 0.00 55 1016.5
20260902151048 90 107 2.0 4.0 0.00 0.00 0.00 55 1016.5
20260902150526 89 96 2.0 6.0 0.00 0.00 0.00 56 1016.5
20260902150044 89 102 2.0 6.0 0.00 0.00 0.00 56 1016.4
20260902145523 89 109 3.0 6.0 0.00 0.00 0.00 56 1016.4
20260902145020 89 108 2.0 4.0 0.00 0.00 0.00 56 1016.4
20260902144518 89 126 2.0 5.0 0.00 0.00 0.00 57 1016.4
20260902144016 88 129 2.0 6.0 0.00 0.00 0.00 57 1016.5
20260902143534 88 110 3.0 5.0 0.00 0.00 0.00 58 1016.6
20260902143032 88 125 2.0 4.0 0.00 0.00 0.00 59 1016.6
20260902142529 87 184 2.0 5.0 0.00 0.00 0.00 59 1016.6
20260902142027 88 162 2.0 6.0 0.00 0.00 0.00 60 1016.6
20260902141525 87 130 2.0 6.0 0.00 0.00 0.00 60 1016.5
20260902141022 87 159 1.0 5.0 0.00 0.00 0.00 61 1016.4
20260902140521 86 126 2.0 6.0 0.00 0.00 0.00 61 1016.5
20260902140040 86 142 2.0 6.0 0.00 0.00 0.00 61 1016.7
20260902135516 86 142 2.0 4.0 0.00 0.00 0.00 62 1016.5
20260902135034 86 128 2.0 6.0 0.00 0.00 0.00 62 1016.7
20260902134533 85 125 2.0 4.0 0.00 0.00 0.00 63 1016.7
20260902134031 85 113 2.0 4.0 0.00 0.00 0.00 63 1016.6
20260902133528 84 126 2.0 4.0 0.00 0.00 0.00 64 1016.5
20260902133026 84 108 2.0 6.0 0.00 0.00 0.00 64 1016.3
20260902132524 84 127 2.0 5.0 0.00 0.00 0.00 64 1016.4
20260902132042 84 26 2.0 4.0 0.00 0.00 0.00 66 1016.3
20260902131521 83 110 2.0 4.0 0.00 0.00 0.00 66 1016.4
20260902131018 83 158 1.0 3.0 0.00 0.00 0.00 67 1016.2
20260902130535 83 84 1.0 4.0 0.00 0.00 0.00 68 1016.4
20260902130033 83 78 2.0 4.0 0.00 0.00 0.00 68 1016.3
20260902125532 82 59 2.0 3.0 0.00 0.00 0.00 68 1016.2
20260902125030 82 23 2.0 4.0 0.00 0.00 0.00 69 1016.2
20260902124548 82 58 1.0 3.0 0.00 0.00 0.00 69 1016.2
20260902124025 81 166 0.0 2.0 0.00 0.00 0.00 70 1016.1
20260902123523 80 146 1.0 2.0 0.00 0.00 0.00 71 1015.9
20260902123020 80 177 1.0 3.0 0.00 0.00 0.00 72 1015.9
20260902122518 79 175 1.0 3.0 0.00 0.00 0.00 73 1015.8
20260902122036 79 214 1.0 2.0 0.00 0.00 0.00 73 1015.6
20260902121534 79 114 1.0 2.0 0.00 0.00 0.00 73 1015.8
20260902121032 79 57 1.0 2.0 0.00 0.00 0.00 73 1015.8
20260902120531 79 54 1.0 3.0 0.00 0.00 0.00 73 1015.8
20260902120049 79 117 1.0 2.0 0.00 0.00 0.00 73 1015.8
20260902115547 79 113 1.0 2.0 0.00 0.00 0.00 72 1015.6
20260902115025 80 158 1.0 4.0 0.00 0.00 0.00 72 1015.6
20260902114523 80 160 2.0 3.0 0.00 0.00 0.00 72 1015.6
20260902114023 80 176 1.0 3.0 0.00 0.00 0.00 72 1015.5
20260902113519 80 144 2.0 4.0 0.00 0.00 0.00 71 1015.7
20260902113016 80 130 2.0 4.0 0.00 0.00 0.00 71 1015.6
20260902112535 80 128 1.0 4.0 0.00 0.00 0.00 71 1015.7
20260902112033 80 129 2.0 5.0 0.00 0.00 0.00 71 1015.7
20260902111530 80 103 2.0 4.0 0.00 0.00 0.00 71 1015.7
20260902111028 80 46 2.0 4.0 0.00 0.00 0.00 71 1015.6
20260902110546 80 118 2.0 5.0 0.00 0.00 0.00 70 1015.6
20260902110024 80 137 1.0 4.0 0.00 0.00 0.00 70 1015.6
20260902105521 80 136 1.0 4.0 0.00 0.00 0.00 70 1015.6
20260902105019 80 135 2.0 4.0 0.00 0.00 0.00 70 1015.5
20260902104517 80 129 1.0 3.0 0.00 0.00 0.00 71 1015.7
20260902104035 80 151 1.0 2.0 0.00 0.00 0.00 70 1015.5
20260902103533 81 152 1.0 3.0 0.00 0.00 0.00 70 1015.7
20260902103031 81 138 1.0 2.0 0.00 0.00 0.00 70 1015.7
20260902102530 81 86 1.0 2.0 0.00 0.00 0.00 70 1015.8
20260902102028 81 80 0.0 2.0 0.00 0.00 0.00 69 1015.6
20260902101527 81 0.0 1.0 0.00 0.00 0.00 69 1015.5
20260902101025 81 115 0.0 2.0 0.00 0.00 0.00 68 1015.5
20260902100523 81 164 1.0 3.0 0.00 0.00 0.00 68 1015.5
20260902100021 81 158 1.0 2.0 0.00 0.00 0.00 68 1015.5
20260902095519 82 182 1.0 2.0 0.00 0.00 0.00 67 1015.6
20260902095038 82 168 1.0 2.0 0.00 0.00 0.00 67 1015.4
20260902094516 82 179 1.0 3.0 0.00 0.00 0.00 67 1015.5
20260902094034 82 175 1.0 4.0 0.00 0.00 0.00 67 1015.5
20260902093532 82 173 1.0 3.0 0.00 0.00 0.00 66 1015.6
20260902093030 82 169 1.0 4.0 0.00 0.00 0.00 66 1015.6
20260902092529 82 174 1.0 2.0 0.00 0.00 0.00 66 1015.5
20260902092027 82 195 1.0 3.0 0.00 0.00 0.00 66 1015.4
20260902091525 82 217 1.0 4.0 0.00 0.00 0.00 66 1015.5
20260902091023 83 188 1.0 3.0 0.00 0.00 0.00 66 1015.6
20260902090522 83 188 1.0 3.0 0.00 0.00 0.00 65 1015.5
20260902090019 83 194 1.0 4.0 0.00 0.00 0.00 65 1015.5
20260902085517 83 210 0.0 2.0 0.00 0.00 0.00 65 1015.6
20260902085015 83 218 1.0 3.0 0.00 0.00 0.00 64 1015.6
20260902084533 83 214 1.0 4.0 0.00 0.00 0.00 64 1015.7
20260902084031 83 219 1.0 3.0 0.00 0.00 0.00 64 1015.7
20260902083530 83 176 1.0 2.0 0.00 0.00 0.00 63 1015.7
20260902083028 84 182 1.0 2.0 0.00 0.00 0.00 63 1015.7
20260902082527 84 158 1.0 3.0 0.00 0.00 0.00 63 1015.8
20260902082026 84 190 1.0 3.0 0.00 0.00 0.00 62 1015.7
20260902081524 84 180 1.0 4.0 0.00 0.00 0.00 62 1015.7
20260902081024 84 185 1.0 4.0 0.00 0.00 0.00 62 1015.6
20260902080520 84 186 1.0 4.0 0.00 0.00 0.00 61 1015.7
20260902080018 85 195 2.0 5.0 0.00 0.00 0.00 61 1015.5
20260902075517 85 172 2.0 5.0 0.00 0.00 0.00 61 1015.5
20260902075035 85 196 2.0 4.0 0.00 0.00 0.00 61 1015.6
20260902074533 85 182 3.0 6.0 0.00 0.00 0.00 61 1015.6
20260902074031 85 200 2.0 4.0 0.00 0.00 0.00 61 1015.6
20260902073549 85 193 2.0 5.0 0.00 0.00 0.00 61 1015.7
20260902073027 85 174 2.0 4.0 0.00 0.00 0.00 61 1015.7
20260902072525 85 187 2.0 6.0 0.00 0.00 0.00 60 1015.8
20260902072043 85 185 2.0 6.0 0.00 0.00 0.00 60 1015.8
20260902071521 85 206 2.0 7.0 0.00 0.00 0.00 60 1015.9
20260902071019 85 188 2.0 7.0 0.00 0.00 0.00 60 1015.9
20260902070518 86 178 2.0 4.0 0.00 0.00 0.00 60 1015.7
20260902070016 86 202 2.0 6.0 0.00 0.00 0.00 60 1015.8
20260902065534 86 175 3.0 5.0 0.00 0.00 0.00 59 1015.7
20260902065033 86 175 4.0 8.0 0.00 0.00 0.00 59 1015.7
20260902064530 85 172 3.0 7.0 0.00 0.00 0.00 60 1015.7
20260902064049 86 177 2.0 6.0 0.00 0.00 0.00 60 1015.8
20260902063526 86 172 4.0 6.0 0.00 0.00 0.00 59 1015.6
20260902063025 86 190 3.0 8.0 0.00 0.00 0.00 59 1015.6
20260902062523 86 194 3.0 8.0 0.00 0.00 0.00 59 1015.5
20260902062021 86 198 3.0 6.0 0.00 0.00 0.00 59 1015.4
20260902061519 86 208 2.0 6.0 0.00 0.00 0.00 59 1015.4
20260902061017 87 177 2.0 4.0 0.00 0.00 0.00 58 1015.4
20260902060535 87 186 2.0 4.0 0.00 0.00 0.00 58 1015.3
20260902060032 87 185 3.0 6.0 0.00 0.00 0.00 58 1015.2
20260902055530 87 184 3.0 7.0 0.00 0.00 0.00 58 1015.2
20260902055029 87 184 2.0 5.0 0.00 0.00 0.00 57 1015.0
20260902054526 87 179 3.0 8.0 0.00 0.00 0.00 57 1015.1
20260902054024 87 173 3.0 8.0 0.00 0.00 0.00 56 1015.1
20260902053522 87 187 4.0 9.0 0.00 0.00 0.00 56 1015.0
20260902053020 88 169 4.0 9.0 0.00 0.00 0.00 56 1015.1
20260902052518 88 187 3.0 7.0 0.00 0.00 0.00 55 1015.0
20260902052016 88 187 3.0 8.0 0.00 0.00 0.00 55 1014.9
20260902051534 89 173 4.0 8.0 0.00 0.00 0.00 54 1014.9
20260902051153 89 163 4.0 11.0 0.00 0.00 0.00 53 1014.8
20260902050530 89 176 3.0 8.0 0.00 0.00 0.00 53 1014.9
20260902050028 89 159 3.0 9.0 0.00 0.00 0.00 53 1015.1
20260902045526 89 123 2.0 7.0 0.00 0.00 0.00 53 1015.2
20260902045025 89 129 2.0 5.0 0.00 0.00 0.00 53 1015.1
20260902044523 89 113 1.0 2.0 0.00 0.00 0.00 53 1014.8
20260902044021 89 126 1.0 3.0 0.00 0.00 0.00 53 1014.7
20260902043519 89 127 1.0 3.0 0.00 0.00 0.00 52 1014.7
20260902043037 89 147 1.0 3.0 0.00 0.00 0.00 52 1014.7
20260902042515 89 143 1.0 4.0 0.00 0.00 0.00 52 1014.6
20260902042114 89 130 1.0 3.0 0.00 0.00 0.00 52 1014.7
20260902041531 89 142 1.0 4.0 0.00 0.00 0.00 52 1014.7
20260902041030 90 121 1.0 4.0 0.00 0.00 0.00 52 1014.6
20260902040528 90 128 1.0 4.0 0.00 0.00 0.00 52 1014.5
20260902040026 90 130 0.0 4.0 0.00 0.00 0.00 51 1014.7
20260902035524 90 134 1.0 4.0 0.00 0.00 0.00 51 1014.6
20260902035022 90 126 2.0 5.0 0.00 0.00 0.00 51 1014.6
20260902034521 90 130 2.0 5.0 0.00 0.00 0.00 51 1014.7
20260902034018 90 140 2.0 7.0 0.00 0.00 0.00 51 1014.7
20260902033516 90 129 2.0 4.0 0.00 0.00 0.00 51 1014.7
20260902033114 90 121 2.0 4.0 0.00 0.00 0.00 51 1014.5
20260902032532 90 129 2.0 3.0 0.00 0.00 0.00 51 1014.6
20260902032030 91 125 2.0 4.0 0.00 0.00 0.00 50 1014.6
20260902031547 91 139 2.0 4.0 0.00 0.00 0.00 50 1014.5
20260902031025 91 137 1.0 4.0 0.00 0.00 0.00 50 1014.6
20260902030523 91 148 1.0 3.0 0.00 0.00 0.00 50 1014.5
20260902030021 91 155 1.0 4.0 0.00 0.00 0.00 50 1014.4
20260902025539 91 129 1.0 3.0 0.00 0.00 0.00 49 1014.4
20260902025057 91 148 1.0 3.0 0.00 0.00 0.00 49 1014.4
20260902024515 91 133 1.0 4.0 0.00 0.00 0.00 49 1014.4
20260902024033 92 139 1.0 3.0 0.00 0.00 0.00 48 1014.2
20260902023532 92 152 1.0 3.0 0.00 0.00 0.00 48 1014.1
20260902023032 92 133 2.0 5.0 0.00 0.00 0.00 48 1014.1
20260902022528 92 146 2.0 4.0 0.00 0.00 0.00 48 1014.0
20260902022025 92 160 2.0 4.0 0.00 0.00 0.00 47 1014.0
20260902021522 92 134 2.0 4.0 0.00 0.00 0.00 47 1013.9
20260902021101 92 158 2.0 4.0 0.00 0.00 0.00 47 1013.9
20260902020537 93 125 1.0 4.0 0.00 0.00 0.00 47 1013.7
20260902020035 93 136 3.0 5.0 0.00 0.00 0.00 46 1013.6
20260902015532 93 127 2.0 5.0 0.00 0.00 0.00 46 1013.5
20260902015049 93 113 3.0 7.0 0.00 0.00 0.00 46 1013.5
20260902014527 93 124 2.0 5.0 0.00 0.00 0.00 46 1013.5
20260902014024 93 123 2.0 3.0 0.00 0.00 0.00 45 1013.3
20260902013524 93 115 2.0 4.0 0.00 0.00 0.00 45 1013.4
20260902013141 93 123 2.0 4.0 0.00 0.00 0.00 45 1013.4
20260902012518 94 121 1.0 4.0 0.00 0.00 0.00 45 1013.3
20260902012016 94 118 3.0 5.0 0.00 0.00 0.00 44 1013.2
20260902011533 94 126 2.0 5.0 0.00 0.00 0.00 44 1013.2
20260902011031 94 120 2.0 5.0 0.00 0.00 0.00 44 1013.3
20260902010529 94 123 2.0 5.0 0.00 0.00 0.00 44 1013.2
20260902010027 95 129 2.0 6.0 0.00 0.00 0.00 43 1013.2
20260902005525 95 131 2.0 6.0 0.00 0.00 0.00 43 1013.2
20260902005023 95 132 3.0 7.0 0.00 0.00 0.00 43 1013.3
20260902004521 95 141 2.0 7.0 0.00 0.00 0.00 43 1013.2
20260902004038 95 126 4.0 7.0 0.00 0.00 0.00 42 1013.2
20260902003536 96 130 4.0 8.0 0.00 0.00 0.00 42 1013.3
20260902003034 96 129 4.0 10.0 0.00 0.00 0.00 42 1013.2
20260902002532 96 122 3.0 8.0 0.00 0.00 0.00 42 1013.4
20260902002030 97 120 4.0 10.0 0.00 0.00 0.00 42 1013.4
20260902001528 97 125 3.0 8.0 0.00 0.00 0.00 42 1013.5
20260902001026 97 107 4.0 10.0 0.00 0.00 0.00 41 1013.4
20260902000524 97 122 4.0 9.0 0.00 0.00 0.00 41 1013.5
20260902000022 98 113 3.0 8.0 0.00 0.00 0.00 39 1013.5
20260901235520 99 144 2.0 6.0 0.00 0.00 0.00 38 1013.5
20260901235039 99 154 2.0 5.0 0.00 0.00 0.00 38 1013.4
20260901234517 98 120 2.0 6.0 0.00 0.00 0.00 38 1013.5
20260901234035 99 140 2.0 8.0 0.00 0.00 0.00 38 1013.5
20260901233533 99 142 3.0 8.0 0.00 0.00 0.00 38 1013.5
20260901233031 99 104 3.0 10.0 0.00 0.00 0.00 38 1013.6
20260901232529 99 89 3.0 9.0 0.00 0.00 0.00 38 1013.6
20260901232026 99 107 3.0 6.0 0.00 0.00 0.00 38 1013.7
20260901231524 99 133 3.0 7.0 0.00 0.00 0.00 38 1013.8
20260901231102 99 112 3.0 9.0 0.00 0.00 0.00 39 1013.8
20260901230520 99 127 4.0 8.0 0.00 0.00 0.00 38 1013.7
20260901230018 99 114 2.0 4.0 0.00 0.00 0.00 37 1013.5
20260901225516 99 103 2.0 4.0 0.00 0.00 0.00 37 1013.6
20260901225034 99 104 3.0 5.0 0.00 0.00 0.00 37 1013.6
20260901224532 100 134 2.0 5.0 0.00 0.00 0.00 36 1013.7
20260901224030 100 126 3.0 10.0 0.00 0.00 0.00 36 1013.6
20260901223528 101 154 4.0 8.0 0.00 0.00 0.00 36 1013.6
20260901223026 101 215 2.0 6.0 0.00 0.00 0.00 35 1013.6
20260901222525 101 204 3.0 6.0 0.00 0.00 0.00 35 1013.6
20260901222024 101 111 4.0 8.0 0.00 0.00 0.00 35 1013.7
20260901221520 101 153 2.0 6.0 0.00 0.00 0.00 35 1013.6
20260901221019 100 138 3.0 7.0 0.00 0.00 0.00 35 1013.8
20260901220517 100 108 4.0 7.0 0.00 0.00 0.00 37 1013.7
20260901220034 100 97 3.0 8.0 0.00 0.00 0.00 37 1013.7
20260901215532 100 81 4.0 6.0 0.00 0.00 0.00 37 1013.8
20260901215028 100 92 4.0 7.0 0.00 0.00 0.00 37 1013.8
20260901214526 101 105 3.0 9.0 0.00 0.00 0.00 35 1014.0
20260901214022 102 168 3.0 7.0 0.00 0.00 0.00 35 1014.1
20260901213538 102 207 2.0 6.0 0.00 0.00 0.00 35 1014.1
20260901213017 102 172 3.0 8.0 0.00 0.00 0.00 36 1014.1
20260901212533 101 186 3.0 6.0 0.00 0.00 0.00 36 1014.2
20260901212031 102 146 4.0 10.0 0.00 0.00 0.00 35 1014.2
20260901211548 103 200 3.0 7.0 0.00 0.00 0.00 35 1014.2
20260901211025 101 181 3.0 6.0 0.00 0.00 0.00 36 1014.3
20260901210523 102 121 5.0 11.0 0.00 0.00 0.00 36 1014.3
20260901210021 101 130 4.0 7.0 0.00 0.00 0.00 36 1014.4
20260901205518 101 130 3.0 9.0 0.00 0.00 0.00 36 1014.5
20260901205016 102 128 3.0 9.0 0.00 0.00 0.00 36 1014.6
20260901204534 100 165 2.0 4.0 0.00 0.00 0.00 38 1014.5
20260901204032 100 92 3.0 7.0 0.00 0.00 0.00 38 1014.6
20260901203550 99 97 4.0 9.0 0.00 0.00 0.00 38 1014.6
20260901203027 98 141 2.0 6.0 0.00 0.00 0.00 39 1014.6
20260901202525 98 85 6.0 11.0 0.00 0.00 0.00 39 1014.7
20260901202022 99 82 6.0 11.0 0.00 0.00 0.00 40 1014.9
20260901201540 98 108 7.0 15.0 0.00 0.00 0.00 41 1014.9
20260901201017 98 88 4.0 12.0 0.00 0.00 0.00 40 1014.9
20260901200535 98 95 3.0 5.0 0.00 0.00 0.00 40 1014.9
20260901200053 99 103 4.0 9.0 0.00 0.00 0.00 40 1015.1
20260901195531 98 89 5.0 11.0 0.00 0.00 0.00 41 1015.1
20260901195028 98 84 5.0 9.0 0.00 0.00 0.00 41 1014.9
20260901194524 98 95 5.0 9.0 0.00 0.00 0.00 40 1015.2
20260901194042 100 98 4.0 8.0 0.00 0.00 0.00 39 1015.4
20260901193519 100 106 4.0 10.0 0.00 0.00 0.00 39 1015.3
20260901193037 99 104 4.0 7.0 0.00 0.00 0.00 39 1015.3
20260901192533 99 93 5.0 9.0 0.00 0.00 0.00 38 1015.3
20260901192031 98 107 4.0 8.0 0.00 0.00 0.00 40 1015.5
20260901191609 100 93 5.0 12.0 0.00 0.00 0.00 39 1015.6
20260901191024 100 136 3.0 6.0 0.00 0.00 0.00 39 1015.7
20260901190520 101 94 4.0 11.0 0.00 0.00 0.00 40 1015.7
20260901190018 101 165 2.0 5.0 0.00 0.00 0.00 39 1015.8
20260901185516 99 165 3.0 9.0 0.00 0.00 0.00 39 1016.0
20260901185054 100 104 3.0 8.0 0.00 0.00 0.00 40 1016.0
20260901184531 100 216 2.0 6.0 0.00 0.00 0.00 40 1016.1
20260901184030 97 92 4.0 11.0 0.00 0.00 0.00 43 1016.2
20260901183527 97 78 5.0 12.0 0.00 0.00 0.00 44 1016.4
20260901183021 98 86 3.0 8.0 0.00 0.00 0.00 42 1016.6
20260901182519 99 120 4.0 8.0 0.00 0.00 0.00 42 1016.5
20260901182017 99 202 4.0 8.0 0.00 0.00 0.00 41 1016.6
20260901181615 98 119 3.0 8.0 0.00 0.00 0.00 41 1016.6
20260901181032 98 95 4.0 8.0 0.00 0.00 0.00 41 1016.7
20260901180528 97 138 3.0 12.0 0.00 0.00 0.00 43 1016.6
20260901180026 97 76 4.0 8.0 0.00 0.00 0.00 43 1016.8
20260901175544 98 146 3.0 11.0 0.00 0.00 0.00 42 1016.9
20260901175021 97 118 5.0 9.0 0.00 0.00 0.00 42 1016.9
20260901174519 98 141 2.0 8.0 0.00 0.00 0.00 42 1016.9
20260901174018 97 175 3.0 6.0 0.00 0.00 0.00 43 1016.9
20260901173534 96 99 3.0 6.0 0.00 0.00 0.00 45 1017.1
20260901173031 96 67 3.0 6.0 0.00 0.00 0.00 44 1017.1
20260901172528 97 101 4.0 8.0 0.00 0.00 0.00 44 1017.3
20260901172026 97 115 2.0 6.0 0.00 0.00 0.00 43 1017.2
20260901171523 97 148 2.0 6.0 0.00 0.00 0.00 43 1017.4
20260901171021 98 113 3.0 5.0 0.00 0.00 0.00 43 1017.4
20260901170519 97 178 3.0 5.0 0.00 0.00 0.00 43 1017.5
20260901170017 96 112 3.0 7.0 0.00 0.00 0.00 44 1017.5
20260901165515 97 160 3.0 11.0 0.00 0.00 0.00 44 1017.6